Find Local Weather

World > North America > United States > Pennsylvania

Shamokin, Pennsylvania Regional Weather

Lat: 40.79N, Lon: 76.55W
Wx Zone: PAZ052
Feedback

Shamokin, PA Regional Weather

Expires:201905242100;;398217
ASUS41 KOKX 242006
RWROKX

Regional Weather Roundup
National Weather Service New York NY
400 PM EDT FRI MAY 24 2019

Note: "FAIR" indicates few or no clouds below 12,000 feet with no
significant weather and/or obstructions to visibility.


PAZ047>061-062-071-242100-
Eastern Pennsylvania
  
CITY           SKY/WX    TMP DP  RH WIND       PRES   REMARKS
Philadelphia   FAIR      81  49  32 NW20G30   29.97S                  
Allentown      FAIR      80  52  37 N20       29.99S                  
Scranton       FAIR      71  52  50 N14G24    30.05R                  
$$


SKY/WX - Weather  TMP - Temperature  DP - Dew Point  RH - Relative Humidity
WIND - Wind Direction/Speed PRES - Barometric Pressure VSB - Visibility
WCI - Wind Chill Index E13G22 Wind - East Wind 13 mph/Gusts of 22 mph